Location: Malanoce
(44.2500°N, 7.4667°E)
Time: 13:08:03
(UTC+00:00)

Cosmos 841 Rocket - Pass Details

Date: 17 November 2025
Orbit: 742 x 768 km, 74.0° (Epoch: 06 December)

Event Time Altitude Azimuth Distance (km) Brightness Sun altitude
Rises 18:08:30 0° 340° (NNW) 3,246 6.9 -22.7°
Reaches altitude 10° 18:10:54 10° 342° (NNW) 2,317 6.1 -23.1°
Maximum altitude 18:16:10 76° 69° (ENE) 795 3.3 -24.0°
Enters shadow 18:17:14 56° 137° (SE) 908 3.6 -24.2°
